Temp
-11 -11 -12 -12 -12 -12 -12 -12 -11 -11 -11 -11 -12 -11 -11 -11 -11 -11 -11 -11 -11 -11 -11 -11 -11 -11 -11 -11 -11 -11 -11 -11
-11 -11 -11 -12 -12 -12 -12 -12 -12 -12 -12 -12 -11 -11 -11 -11 -11 -11 -11 -11 -11 -11 -11 -12 -12 -12 -12 -12 -11 -11 -11 -12
-11 -11 -11 -11 -11 -11 -11 -11 -12 -11 -11 -11 -11 -11 -11 -11 -11 -11 -11 -11 -11 -11 -11 -11 -11 -11 -11 -11 -11 -11 -11 -11
-12 -12 -11 -11 -11 -11 -11 -11 -11 -11 -11 -11 -11 -11 -11 -11 -11 -11 -11 -11 -11 -11 -11 -11 -12 -12 -12 -11 -11 -12 -12 -11
-12 -12 -12 -12 -12 -12 -12 -12 -12 -11 -11 -11 -12 -12 -11 -11 -11 -11 -11 -11 -11 -11 -12 -12 -11 -12 -12 -12 -12 -12 -12 -12
-12 -12 -12 -12 -12 -12 -12 -12 -11 -11 -11 -11 -12 -11 -11 -11 -11 -11 -11 -11 -11 -11 -11 -12 -12 -12 -12 -12 -12 -12 -12 -12
-12 -12 -12 -11 -11 -11 -12 -11 -11 -11 -11 -11 -12 -11 -11 -11 -12 -12 -11 -11 -11 -11 -11 -12 -12 -12 -12 -12 -12 -12 -12 -12
-12 -12 -11 -11 -11 -11 -11 -11 -11 -11 -11 -11 -11 -11 -11 -11 -11 -11 -11 -12 -12 -12 -12 -12 -12 -12 -12 -12 -12 -13 -13 -12
-12 -11 -11 -11 -11 -11 -11 -11 -11 -11 -11 -11 -11 -11 -11 -11 -11 -11 -11 -11 -11 -12 -12 -12 -12 -12 -12 -12 -12 -12 -12 -12
-12 -11 -11 -11 -12 -11 -11 -11 -11 -11 -11 -11 -11 -11 -11 -11 -11 -12 -12 -12 -12 -12 -12 -12 -12 -12 -12 -12 -12 -12 -12 -12
-12 -12 -12 -12 -12 -12 -12 -12 -11 -11 -11 -11 -11 -12 -12 -12 -12 -12 -12 -12 -12 -12 -12 -12 -12 -12 -12 -13 -13 -12 -12 -12
-13 -12 -12 -12 -12 -12 -12 -12 -12 -12 -12 -12 -12 -12 -12 -12 -12 -12 -13 -12 -12 -12 -12 -12 -12 -12 -12 -12 -12 -12 -12 -12
-13 -13 -12 -12 -12 -12 -12 -12 -12 -12 -12 -12 -12 -12 -12 -13 -13 -13 -13 -13 -13 -13 -13 -13 -12 -12 -12 -12 -13 -13 -14 -14
-13 -12 -12 -13 -13 -12 -12 -12 -12 -12 -12 -12 -13 -13 -13 -13 -13 -13 -13 -13 -13 -13 -13 -13 -13 -13 -13 -13 -14 -15 -15 -15
-13 -13 -13 -13 -13 -13 -13 -12 -13 -13 -13 -13 -13 -13 -13 -14 -14 -14 -14 -14 -14 -14 -14 -14 -14 -15 -15 -15 -15 -16 -16 -16
-13 -13 -13 -13 -13 -13 -13 -13 -13 -13 -13 -13 -14 -14 -14 -14 -14 -14 -14 -14 -14 -14 -15 -15 -15 -16 -16 -16 -16 -17 -17 -17
-13 -13 -14 -13 -13 -13 -13 -14 -14 -14 -14 -14 -14 -14 -15 -15 -15 -15 -15 -15 -15 -15 -16 -16 -17 -17 -17 -17 -18 -18 -18 -18
-14 -14 -14 -14 -14 -14 -14 -14 -14 -14 -15 -15 -15 -15 -15 -15 -15 -15 -15 -15 -16 -17 -17 -17 -17 -17 -17 -18 -19 -19 -20 -20
-15 -15 -15 -15 -15 -15 -15 -15 -14 -15 -15 -15 -15 -15 -15 -15 -16 -16 -16 -17 -17 -17 -17 -17 -18 -18 -19 -20 -21 -21 -20 -20
-15 -15 -15 -15 -15 -15 -15 -15 -15 -16 -16 -16 -16 -16 -16 -17 -17 -17 -17 -18 -17 -18 -18 -18 -19 -20 -21 -22 -22 -21 -21 -20
Height
5849 5850 5850 5849 5850 5850 5850 5850 5850 5850 5849 5848 5847 5846 5846 5845 5845 5844 5844 5844 5843 5843 5843 5843 5842 5840 5840 5840 5841 5841 5840 5841
5845 5845 5845 5845 5845 5845 5846 5846 5846 5845 5844 5843 5842 5842 5841 5841 5840 5840 5839 5840 5840 5839 5839 5838 5838 5838 5837 5836 5835 5837 5837 5837
5842 5842 5841 5841 5841 5841 5841 5841 5841 5840 5840 5839 5838 5838 5837 5837 5837 5837 5836 5835 5835 5835 5834 5834 5834 5834 5833 5832 5832 5831 5832 5831
5837 5837 5837 5836 5836 5836 5836 5836 5835 5835 5835 5835 5834 5834 5833 5833 5832 5832 5832 5831 5831 5831 5831 5830 5829 5829 5828 5827 5826 5826 5825 5825
5833 5832 5831 5830 5830 5830 5830 5830 5830 5829 5829 5829 5829 5829 5828 5828 5827 5826 5826 5826 5826 5826 5825 5825 5824 5824 5822 5822 5822 5821 5820 5819
5827 5827 5827 5827 5825 5824 5823 5823 5822 5821 5821 5822 5822 5821 5821 5821 5821 5820 5819 5819 5818 5818 5817 5816 5816 5816 5816 5815 5815 5815 5813 5812
5820 5819 5819 5819 5818 5817 5816 5816 5815 5815 5814 5813 5813 5812 5813 5814 5813 5812 5811 5811 5811 5810 5809 5808 5808 5808 5807 5807 5806 5806 5806 5804
5813 5811 5811 5810 5810 5809 5808 5808 5808 5807 5807 5806 5806 5805 5805 5805 5805 5805 5804 5803 5802 5802 5801 5800 5800 5799 5799 5799 5797 5796 5796 5796
5805 5804 5803 5803 5802 5801 5800 5800 5800 5800 5800 5799 5799 5799 5798 5798 5797 5797 5796 5795 5794 5793 5792 5791 5790 5790 5790 5789 5788 5787 5786 5784
5794 5795 5795 5795 5794 5793 5792 5792 5792 5792 5791 5791 5791 5790 5790 5791 5790 5789 5788 5787 5786 5784 5783 5781 5780 5779 5778 5777 5777 5777 5775 5774
5786 5786 5786 5786 5786 5785 5785 5784 5783 5783 5783 5783 5783 5783 5782 5782 5781 5780 5779 5777 5776 5775 5773 5772 5770 5768 5767 5765 5764 5763 5762 5761
5780 5779 5779 5779 5778 5777 5776 5776 5775 5775 5775 5774 5774 5774 5773 5772 5771 5770 5768 5767 5765 5763 5761 5760 5759 5757 5755 5752 5749 5747 5745 5744
5773 5772 5772 5771 5771 5770 5769 5768 5768 5767 5766 5766 5765 5765 5764 5763 5761 5760 5758 5756 5754 5752 5749 5747 5744 5744 5742 5739 5735 5732 5728 5724
5764 5764 5763 5762 5762 5762 5761 5761 5759 5758 5757 5757 5756 5755 5754 5753 5751 5748 5746 5744 5741 5739 5736 5733 5729 5726 5724 5721 5719 5715 5710 5706
5755 5754 5754 5754 5753 5753 5752 5751 5749 5748 5747 5746 5745 5744 5743 5742 5739 5736 5733 5730 5727 5723 5720 5717 5713 5707 5704 5701 5699 5698 5694 5690
5746 5745 5745 5745 5744 5742 5741 5740 5739 5738 5737 5736 5736 5734 5732 5729 5726 5723 5720 5716 5713 5709 5704 5700 5696 5692 5684 5681 5679 5676 5674 5672
5736 5736 5735 5735 5734 5732 5731 5730 5729 5728 5727 5725 5724 5723 5720 5718 5714 5711 5707 5702 5699 5694 5688 5683 5678 5674 5669 5663 5656 5653 5650 5650
5726 5726 5725 5724 5723 5721 5721 5720 5719 5717 5715 5714 5712 5710 5707 5704 5700 5696 5691 5687 5682 5677 5672 5667 5660 5654 5648 5642 5637 5633 5630 5628
5716 5715 5714 5713 5712 5711 5709 5707 5706 5704 5702 5700 5698 5696 5693 5689 5685 5681 5677 5672 5667 5661 5654 5648 5640 5633 5625 5619 5615 5614 5612 5611
5704 5703 5703 5702 5700 5699 5698 5695 5694 5691 5689 5687 5684 5682 5679 5676 5672 5666 5661 5656 5652 5644 5637 5630 5623 5613 5606 5601 5598 5597 5596 5596
Wind_Speed
22 24 26 27 27 28 29 30 31 30 29 28 26 26 25 25 25 24 25 25 24 22 22 24 24 25 27 27 26 26 27 25
21 23 25 27 28 28 29 30 31 29 27 27 25 24 22 22 23 24 23 24 24 24 23 22 23 25 25 26 28 27 28 29
21 22 23 24 25 26 27 28 28 26 25 25 24 22 19 19 19 19 19 20 20 21 21 22 23 25 27 26 26 29 29 31
24 25 26 26 27 27 26 26 26 25 25 25 23 23 22 23 22 22 22 22 22 23 25 26 28 28 30 33 31 33 33 36
27 27 28 29 31 32 32 32 32 31 31 30 29 27 27 28 28 28 28 28 28 29 31 32 36 34 33 33 34 38 39 39
33 32 31 32 32 33 33 34 34 34 37 37 37 34 34 35 33 32 30 30 30 32 33 34 36 35 35 35 39 40 44 45
34 35 34 35 34 33 34 33 31 32 33 35 36 37 37 36 33 32 32 32 33 33 34 35 36 37 38 39 39 38 39 44
37 36 34 34 34 34 35 32 30 30 31 32 32 33 34 35 34 34 34 33 32 32 33 34 36 37 39 40 42 44 43 44
38 35 33 33 32 33 33 32 32 33 32 32 32 32 34 35 34 33 33 34 35 35 36 37 38 40 41 44 45 46 49 50
41 35 32 32 32 32 33 33 34 35 34 32 32 32 32 33 34 35 36 36 37 38 39 40 41 42 43 45 46 48 52 54
40 35 36 35 35 35 35 34 34 35 33 32 33 34 35 35 37 38 39 39 39 40 41 42 44 46 48 50 52 54 57 60
40 37 37 37 36 36 37 36 35 34 34 35 36 36 37 39 40 40 41 43 44 45 47 49 51 52 55 57 61 64 65 67
42 41 37 35 35 36 36 37 37 38 39 39 39 39 40 41 42 43 44 45 47 50 53 55 57 57 59 63 65 67 69 73
38 39 36 35 36 38 38 39 40 41 42 42 41 42 42 43 44 46 47 49 52 55 56 59 62 65 66 68 72 74 73 70
40 38 37 37 39 39 40 42 43 43 44 43 44 44 45 46 47 49 52 54 57 59 61 63 65 69 71 71 70 67 63 66
41 39 37 38 39 41 41 43 44 45 45 45 46 47 48 49 51 53 55 57 59 62 64 66 67 67 68 67 65 64 63 66
41 41 40 40 41 43 44 45 45 46 47 48 48 49 50 52 53 55 58 59 62 64 66 66 67 69 71 68 65 66 65 62
43 41 41 42 43 45 46 49 49 47 46 47 49 52 54 55 58 60 61 61 64 65 66 69 71 72 72 70 67 62 60 56
42 42 44 44 45 47 49 50 49 49 50 51 53 54 55 58 60 61 61 61 62 65 67 69 69 70 70 64 55 55 52 48
42 45 46 44 48 49 48 49 50 52 52 52 53 53 54 55 56 56 57 59 64 65 65 67 68 64 57 53 53 50 45 43
Wind_Direction
256 258 260 263 267 269 272 276 280 285 289 290 288 287 287 287 287 288 289 288 290 292 295 296 294 293 295 296 293 290 290 289
265 265 268 270 271 273 277 281 283 286 286 281 281 280 280 281 283 284 284 286 291 293 292 294 297 298 295 293 292 296 295 294
280 279 277 277 277 277 278 279 279 279 279 279 280 282 282 282 284 284 286 285 286 287 288 291 292 294 295 292 297 295 297 299
284 281 279 279 279 279 280 280 279 278 276 276 276 277 279 280 282 282 284 284 286 286 286 285 289 287 290 285 286 291 295 296
281 281 283 284 285 283 281 279 277 276 275 275 275 274 278 278 278 277 278 279 281 283 285 284 288 290 289 284 278 289 290 289
275 275 276 278 279 280 282 286 284 280 275 275 274 276 277 278 278 277 277 279 282 283 284 284 286 287 282 279 278 279 285 287
282 283 280 278 278 278 281 284 285 278 276 275 275 276 277 277 277 276 277 278 279 281 284 286 287 288 287 287 286 284 282 283
284 282 279 278 277 278 280 281 281 278 274 274 276 277 278 279 280 280 281 281 281 282 283 284 285 286 288 288 288 288 287 286
283 280 279 279 278 280 278 276 275 276 276 276 276 275 276 278 278 279 280 281 282 281 281 282 282 282 283 284 286 287 288 287
285 285 285 283 283 280 277 273 274 274 274 273 272 272 272 273 275 276 276 276 276 277 278 279 281 282 282 282 283 283 283 281
284 287 288 286 282 278 275 273 272 272 271 271 271 272 273 273 274 275 276 277 278 280 282 283 284 285 285 284 283 284 284 284
280 283 284 282 279 277 276 275 273 271 270 270 270 271 272 273 275 277 281 284 286 287 287 286 285 285 283 284 287 286 285 284
273 279 277 276 275 273 273 273 271 270 269 270 271 272 273 274 277 279 282 285 286 285 284 284 284 279 279 280 280 283 285 287
271 272 273 274 273 273 273 272 271 270 270 270 271 273 274 275 277 280 283 284 285 285 286 286 284 282 281 279 281 287 289 287
268 270 272 273 273 273 273 272 270 270 271 273 273 274 275 277 279 281 284 286 288 288 288 287 287 289 290 290 290 292 287 283
269 271 274 274 273 273 274 273 274 274 274 274 274 275 276 278 280 283 285 288 290 290 290 290 291 292 295 294 293 290 281 276
267 272 276 276 276 276 276 277 276 276 276 275 275 276 277 279 281 284 286 287 289 291 292 292 296 297 297 294 289 281 275 272
269 272 275 276 274 275 276 277 278 278 278 280 280 280 281 282 283 283 285 288 291 293 295 297 299 298 297 290 284 282 278 274
270 273 273 275 272 274 277 277 278 280 281 282 282 283 282 282 282 285 289 292 297 300 302 301 299 296 292 290 283 275 272 269
270 271 272 272 273 277 278 279 283 284 284 284 284 283 283 285 290 292 295 302 303 303 303 301 300 298 293 284 276 278 275 273